CW5061 Weather Reports


time (UTC)temp
C
wind
direction
speed
KPH
gust
KPH
rain 1hr
cm
rain 24hr
cm
rain mn
cm
humidity
%
barometer
mb
20260506051306 12 197 0.0 3.2 0.00 0.00 0.00 85 1017.9
20260506050807 12 197 0.0 3.2 0.00 0.00 0.00 85 1018.0
20260506050307 12 197 0.0 3.2 0.00 0.00 0.00 85 1018.0
20260506045031 12 318 1.6 3.2 0.00 0.00 0.00 84 1017.9
20260506044307 12 289 1.6 3.2 0.00 0.00 0.00 84 1017.8
20260506043807 12 306 1.6 3.2 0.00 0.00 0.00 84 1017.7
20260506043533 12 286 1.6 4.8 0.00 0.00 0.00 84 1017.7
20260506042807 12 308 1.6 4.8 0.00 0.00 0.00 84 1017.7
20260506042307 12 279 1.6 4.8 0.00 0.00 0.00 84 1017.6
20260506041807 12 329 1.6 4.8 0.00 0.00 0.00 83 1017.6
20260506041522 12 294 0.0 3.2 0.00 0.00 0.00 83 1017.5
20260506041026 12 296 0.0 3.2 0.00 0.00 0.00 83 1017.5
20260506040307 12 266 0.0 3.2 0.00 0.00 0.00 83 1017.5
20260506035758 12 329 0.0 3.2 0.00 0.00 0.00 84 1017.5
20260506035301 13 316 0.0 3.2 0.00 0.00 0.00 83 1017.4
20260506034756 13 306 0.0 4.8 0.00 0.00 0.00 84 1017.4
20260506034258 13 255 1.6 4.8 0.00 0.00 0.00 84 1017.4
20260506033758 13 279 0.0 3.2 0.00 0.00 0.00 84 1017.3
20260506033256 13 275 1.6 4.8 0.00 0.00 0.00 84 1017.2
20260506032756 13 327 1.6 4.8 0.00 0.00 0.00 83 1017.1
20260506032257 13 312 1.6 4.8 0.00 0.00 0.00 83 1017.1
20260506031757 13 327 0.0 6.4 0.00 0.00 0.00 82 1017.0
20260506031257 13 304 1.6 6.4 0.00 0.00 0.00 82 1017.0
20260506031021 13 321 1.6 6.4 0.00 0.00 0.00 82 1016.9
20260506030257 13 327 3.2 9.7 0.00 0.00 0.00 81 1016.9
20260506025757 13 333 4.8 9.7 0.00 0.00 0.00 82 1016.8
20260506025257 13 328 3.2 9.7 0.00 0.00 0.00 81 1016.8
20260506024758 13 346 3.2 9.7 0.00 0.00 0.00 81 1016.7
20260506024257 13 315 3.2 6.4 0.00 0.00 0.00 81 1016.7
20260506023758 13 310 3.2 6.4 0.00 0.00 0.00 81 1016.6
20260506023258 13 331 3.2 6.4 0.00 0.00 0.00 81 1016.6
20260506022805 13 327 4.8 9.7 0.00 0.00 0.00 80 1016.6
20260506022520 13 313 4.8 9.7 0.00 0.00 0.00 80 1016.4
20260506021757 13 332 4.8 8.0 0.00 0.00 0.00 80 1016.4
20260506021256 13 322 3.2 8.0 0.00 0.00 0.00 80 1016.3
20260506020756 13 331 3.2 8.0 0.00 0.00 0.00 80 1016.3
20260506020257 13 330 3.2 8.0 0.00 0.00 0.00 80 1016.3
20260506015757 13 321 3.2 8.0 0.00 0.00 0.00 80 1016.3
20260506015252 13 325 4.8 8.0 0.00 0.00 0.00 80 1016.2
20260506015019 13 321 4.8 9.7 0.00 0.00 0.00 79 1016.2
20260506014252 13 338 3.2 9.7 0.00 0.00 0.00 79 1016.3
20260506014012 13 327 4.8 9.7 0.00 0.00 0.00 80 1016.3
20260506013248 13 312 4.8 9.7 0.00 0.00 0.00 80 1016.3
20260506012749 14 332 4.8 8.0 0.00 0.00 0.00 80 1016.2
20260506012248 14 308 1.6 6.4 0.00 0.00 0.00 79 1016.2
20260506012009 14 306 1.6 6.4 0.00 0.00 0.00 80 1016.2
20260506011518 14 268 3.2 8.0 0.00 0.00 0.00 80 1016.2
20260506010746 14 315 3.2 8.0 0.00 0.00 0.00 79 1016.1
20260506010247 14 0 4.8 8.0 0.00 0.00 0.00 79 1016.3
20260506005748 14 317 4.8 9.7 0.00 0.00 0.00 79 1016.3
20260506005246 14 323 4.8 11.3 0.00 0.00 0.00 79 1016.2
20260506004746 14 295 6.4 11.3 0.00 0.00 0.00 78 1016.2
20260506004247 14 313 4.8 11.3 0.00 0.00 0.00 78 1016.2
20260506003748 14 329 3.2 11.3 0.00 0.00 0.00 78 1016.2
20260506003503 14 337 3.2 12.9 0.00 0.00 0.00 78 1016.1
20260506002738 15 315 3.2 12.9 0.00 0.00 0.00 77 1016.0
20260506002238 15 285 3.2 9.7 0.00 0.00 0.00 77 1016.0
20260506001739 15 311 3.2 11.3 0.00 0.00 0.00 76 1016.0
20260506001239 15 279 3.2 11.3 0.00 0.00 0.00 76 1016.0
20260506001004 15 327 4.8 11.3 0.00 0.00 0.00 76 1016.0
20260506000240 15 321 6.4 11.3 0.00 0.00 0.00 75 1016.0
20260505235739 15 327 4.8 11.3 0.00 0.00 0.00 75 1016.0
20260505235238 15 273 4.8 9.7 0.00 0.00 0.00 75 1016.1
20260505234746 15 305 4.8 9.7 0.00 0.00 0.00 75 1016.2
20260505234238 15 319 6.4 12.9 0.00 0.00 0.00 75 1016.2
20260505233739 15 298 4.8 12.9 0.00 0.00 0.00 75 1016.3
20260505233238 15 349 4.8 12.9 0.00 0.00 0.00 75 1016.3
20260505232740 15 282 4.8 12.9 0.00 0.00 0.00 75 1016.3
20260505232240 15 302 4.8 12.9 0.00 0.00 0.00 76 1016.3
20260505231737 15 284 4.8 12.9 0.00 0.00 0.00 76 1016.3
20260505231231 15 260 6.4 14.5 0.00 0.00 0.00 77 1016.4
20260505230725 15 314 8.0 14.5 0.00 0.00 0.00 77 1016.4
20260505230219 15 256 8.0 14.5 0.00 0.00 0.00 77 1016.6
20260505225714 15 299 8.0 17.7 0.00 0.00 0.00 76 1016.4
20260505225212 15 317 6.4 17.7 0.00 0.00 0.00 76 1016.4
20260505224712 15 327 6.4 17.7 0.00 0.00 0.00 75 1016.4
20260505224213 15 333 8.0 17.7 0.00 0.00 0.00 75 1016.4
20260505223937 15 332 6.4 12.9 0.00 0.00 0.00 75 1016.4
20260505223212 15 294 6.4 14.5 0.00 0.00 0.00 74 1016.6
20260505222712 15 290 4.8 14.5 0.00 0.00 0.00 75 1016.6
20260505222213 15 350 4.8 11.3 0.00 0.00 0.00 75 1016.6
20260505221711 15 324 6.4 14.5 0.00 0.00 0.00 75 1016.6
20260505221429 15 337 6.4 14.5 0.00 0.00 0.00 74 1016.4
20260505220927 15 322 4.8 14.5 0.00 0.00 0.00 73 1016.6
20260505220210 16 334 3.2 11.3 0.00 0.00 0.00 74 1016.6
20260505215708 16 101 4.8 14.5 0.00 0.00 0.00 74 1016.4
20260505215209 16 292 4.8 14.5 0.00 0.00 0.00 73 1016.6
20260505214706 16 306 3.2 12.9 0.00 0.00 0.00 73 1016.4
20260505214208 16 0 3.2 11.3 0.00 0.00 0.00 72 1016.3
20260505213704 16 229 4.8 11.3 0.00 0.00 0.00 73 1016.3
20260505213202 16 296 4.8 9.7 0.00 0.00 0.00 72 1016.2
20260505212700 17 284 3.2 9.7 0.00 0.00 0.00 72 1016.1
20260505212200 17 309 3.2 9.7 0.00 0.00 0.00 71 1016.1
20260505211703 17 334 3.2 9.7 0.00 0.00 0.00 72 1016.1
20260505211201 17 333 3.2 12.9 0.00 0.00 0.00 71 1016.1
20260505210701 17 298 3.2 12.9 0.00 0.00 0.00 71 1016.0
20260505210158 17 322 4.8 12.9 0.00 0.00 0.00 71 1016.0
20260505205658 17 319 3.2 12.9 0.00 0.00 0.00 70 1016.0
20260505205158 17 325 1.6 11.3 0.00 0.00 0.00 71 1016.0
20260505204700 17 278 1.6 6.4 0.00 0.00 0.00 72 1015.9
20260505204422 17 224 1.6 6.4 0.00 0.00 0.00 71 1015.9
20260505203658 17 329 3.2 8.0 0.00 0.00 0.00 72 1016.0
20260505203200 17 248 3.2 8.0 0.00 0.00 0.00 73 1016.0
20260505202921 17 306 3.2 9.7 0.00 0.00 0.00 70 1016.0
20260505202156 17 271 3.2 9.7 0.00 0.00 0.00 72 1016.0
20260505201649 17 276 3.2 9.7 0.00 0.00 0.00 73 1016.0
20260505201143 17 317 3.2 12.9 0.00 0.00 0.00 72 1016.1
20260505200638 17 336 3.2 12.9 0.00 0.00 0.00 72 1016.0
20260505200131 17 193 3.2 8.0 0.00 0.00 0.00 73 1016.0
20260505195627 17 238 3.2 8.0 0.00 0.00 0.00 75 1016.0
20260505195127 17 146 3.2 8.0 0.00 0.00 0.00 74 1016.0
20260505194626 17 194 1.6 8.0 0.00 0.00 0.00 76 1016.0
20260505194126 17 329 1.6 8.0 0.00 0.00 0.00 75 1016.0
20260505193626 16 275 3.2 9.7 0.00 0.00 0.00 75 1016.0
20260505193127 16 272 3.2 11.3 0.00 0.00 0.00 75 1016.0
20260505192626 16 251 3.2 11.3 0.00 0.00 0.00 76 1016.0
20260505192127 16 309 1.6 8.0 0.00 0.00 0.00 76 1016.1
20260505191625 16 312 1.6 8.0 0.00 0.00 0.00 75 1016.2
20260505191128 16 205 1.6 4.8 0.00 0.00 0.00 77 1016.2
20260505190624 15 300 3.2 9.7 0.00 0.00 0.00 77 1016.2
20260505190125 15 314 1.6 9.7 0.00 0.00 0.00 77 1016.2
20260505185626 15 236 3.2 9.7 0.00 0.00 0.00 77 1016.3
20260505185347 15 319 3.2 9.7 0.00 0.00 0.00 76 1016.3
20260505184625 15 329 1.6 8.0 0.00 0.00 0.00 76 1016.2
20260505184123 15 235 3.2 8.0 0.00 0.00 0.00 77 1016.2
20260505183625 15 213 1.6 9.7 0.00 0.00 0.00 78 1016.2
20260505183123 15 326 3.2 11.3 0.00 0.00 0.00 77 1016.3
20260505182624 15 344 3.2 11.3 0.00 0.00 0.00 76 1016.3
20260505182124 15 314 1.6 8.0 0.00 0.00 0.00 78 1016.2
20260505181625 15 299 3.2 8.0 0.00 0.00 0.00 78 1016.2
20260505181123 15 311 3.2 8.0 0.00 0.00 0.00 78 1016.2
20260505180624 15 333 3.2 8.0 0.00 0.00 0.00 78 1016.1
20260505180126 15 349 3.2 8.0 0.00 0.00 0.00 78 1016.2
20260505175625 15 338 3.2 8.0 0.00 0.00 0.00 81 1016.2
20260505175124 14 232 3.2 8.0 0.00 0.00 0.00 79 1016.2
20260505174622 14 315 4.8 8.0 0.00 0.00 0.00 78 1016.2
20260505174122 14 309 4.8 8.0 0.00 0.00 0.00 78 1016.1
20260505173621 14 319 3.2 6.4 0.00 0.00 0.00 78 1016.1
20260505173340 15 326 1.6 8.0 0.00 0.00 0.00 78 1016.1
20260505172839 15 317 1.6 8.0 0.00 0.00 0.00 77 1016.1
20260505172119 15 250 1.6 4.8 0.00 0.00 0.00 79 1016.0
20260505171621 14 355 1.6 6.4 0.00 0.00 0.00 79 1016.0
20260505171120 14 199 1.6 6.4 0.00 0.00 0.00 81 1016.0
20260505170619 14 355 1.6 6.4 0.00 0.00 0.00 80 1016.1
20260505170121 14 15 1.6 6.4 0.00 0.00 0.00 80 1016.0
20260505165621 14 319 1.6 4.8 0.00 0.00 0.00 81 1016.0
20260505165342 14 277 1.6 4.8 0.00 0.00 0.00 81 1016.0
20260505164621 13 287 0.0 3.2 0.00 0.00 0.00 82 1016.0
20260505164120 13 306 0.0 3.2 0.00 0.00 0.00 84 1016.1
20260505163846 13 36 0.0 3.2 0.00 0.00 0.00 83 1016.0
20260505163117 13 46 0.0 3.2 0.00 0.00 0.00 84 1016.0
20260505162615 13 327 0.0 3.2 0.00 0.00 0.00 86 1016.0
20260505162116 13 266 0.0 3.2 0.00 0.00 0.00 85 1016.1
20260505161617 12 121 0.0 3.2 0.00 0.00 0.00 87 1016.0
20260505161116 12 328 0.0 3.2 0.00 0.00 0.00 87 1016.1
20260505160616 12 232 0.0 3.2 0.00 0.00 0.00 88 1016.1
20260505160115 12 267 0.0 3.2 0.00 0.00 0.00 87 1016.1
20260505153107 11 236 1.6 3.2 0.00 0.00 0.00 90 1015.9
20260505152823 11 322 1.6 3.2 0.00 0.00 0.00 90 1015.9
20260505152109 11 333 1.6 3.2 0.00 0.00 0.00 89 1015.9
20260505151606 11 314 1.6 4.8 0.00 0.00 0.00 90 1015.8
20260505150603 11 315 1.6 4.8 0.00 0.00 0.00 90 1015.8
20260505150106 11 305 1.6 4.8 0.00 0.00 0.00 90 1015.8
20260505140601 11 209 0.0 3.2 0.00 0.00 0.00 90 1015.4
20260505140331 11 209 0.0 3.2 0.00 0.00 0.00 90 1015.4
20260505124812 11 183 0.0 0.0 0.00 0.00 0.00 90 1014.8
20260505124048 11 183 0.0 0.0 0.00 0.00 0.00 90 1014.8
20260505123547 11 183 0.0 0.0 0.00 0.00 0.00 90 1014.7
20260505123050 11 183 0.0 3.2 0.00 0.00 0.00 90 1014.7
20260505122550 11 183 0.0 3.2 0.00 0.00 0.00 90 1014.7
20260505122048 11 183 0.0 0.0 0.00 0.00 0.00 90 1014.7
20260505121546 11 183 0.0 3.2 0.00 0.00 0.00 90 1014.7
20260505121043 11 183 0.0 3.2 0.00 0.00 0.00 90 1014.6
20260505120540 11 129 0.0 3.2 0.00 0.00 0.00 90 1014.6
20260505120038 11 129 0.0 3.2 0.00 0.00 0.00 90 1014.6
20260505115537 11 129 0.0 3.2 0.00 0.00 0.00 90 1014.5
20260505115035 11 129 0.0 3.2 0.00 0.00 0.00 90 1014.5
20260505114755 11 93 0.0 3.2 0.00 0.00 0.00 90 1014.5
20260505114029 11 93 0.0 3.2 0.00 0.00 0.00 90 1014.5
20260505113532 11 93 0.0 0.0 0.00 0.00 0.00 90 1014.5
20260505113032 11 93 0.0 0.0 0.00 0.00 0.00 89 1014.5
20260505112532 11 93 0.0 0.0 0.00 0.00 0.00 89 1014.6
20260505112029 11 93 0.0 0.0 0.00 0.00 0.00 89 1014.6
20260505111530 11 93 0.0 0.0 0.00 0.00 0.00 89 1014.6
20260505111031 11 93 0.0 0.0 0.00 0.00 0.00 89 1014.6
20260505110528 11 93 0.0 0.0 0.00 0.00 0.00 89 1014.7
20260505102017 11 165 0.0 3.2 0.00 0.00 0.00 89 1014.8
20260505101515 11 165 0.0 3.2 0.00 0.00 0.00 89 1014.7
20260505101015 11 177 0.0 3.2 0.00 0.00 0.00 89 1014.7
20260505100511 11 205 0.0 3.2 0.00 0.00 0.00 89 1014.7
20260505100006 11 248 0.0 0.0 0.00 0.00 0.00 89 1014.7
20260505095012 11 249 0.0 3.2 0.00 0.00 0.00 89 1014.8
20260505094508 11 249 0.0 3.2 0.00 0.00 0.00 89 1014.8
20260505094016 11 249 0.0 3.2 0.00 0.00 0.00 89 1014.9
20260505093503 11 248 0.0 3.2 0.00 0.00 0.00 89 1015.0
20260505093007 11 177 0.0 3.2 0.00 0.00 0.00 89 1014.9
20260505092506 11 188 0.0 3.2 0.00 0.00 0.00 89 1014.9
20260505092010 11 184 0.0 3.2 0.00 0.00 0.00 89 1014.9
20260505091500 11 168 0.0 3.2 0.00 0.00 0.00 89 1014.9
20260505091006 11 148 0.0 3.2 0.00 0.00 0.00 89 1015.0
20260505090503 11 190 0.0 3.2 0.00 0.00 0.00 88 1014.9
20260505090005 11 189 0.0 3.2 0.00 0.00 0.00 89 1014.9
20260505085501 11 215 0.0 3.2 0.00 0.00 0.00 88 1015.0
20260505085009 11 215 0.0 3.2 0.00 0.00 0.00 88 1015.1
20260505084500 11 215 0.0 3.2 0.00 0.00 0.00 88 1015.1
20260505084006 11 215 0.0 3.2 0.00 0.00 0.00 88 1015.1
20260505083505 11 325 0.0 1.6 0.00 0.00 0.00 88 1015.1
20260505083004 11 325 0.0 1.6 0.00 0.00 0.00 88 1015.1
20260505082504 11 325 0.0 0.0 0.00 0.00 0.00 88 1015.2
20260505082005 11 325 0.0 1.6 0.00 0.00 0.00 88 1015.3
20260505081502 11 325 0.0 1.6 0.00 0.00 0.00 88 1015.3
20260505081001 11 325 0.0 3.2 0.00 0.00 0.00 88 1015.3
20260505080459 11 325 0.0 3.2 0.00 0.00 0.00 88 1015.3
20260505075719 11 355 0.0 3.2 0.00 0.00 0.00 87 1015.3
20260505075004 12 53 0.0 3.2 0.00 0.00 0.00 88 1015.3
20260505074457 12 57 0.0 3.2 0.00 0.00 0.00 88 1015.3
20260505073736 12 57 0.0 3.2 0.00 0.00 0.00 88 1015.4
20260505073001 12 58 0.0 3.2 0.00 0.00 0.00 88 1015.4
20260505072459 12 163 0.0 3.2 0.00 0.00 0.00 88 1015.4
20260505071955 12 163 0.0 0.0 0.00 0.00 0.00 88 1015.4
20260505071727 12 163 0.0 0.0 0.00 0.00 0.00 88 1015.4
20260505071254 12 163 0.0 3.2 0.00 0.08 0.00 88 1015.4
20260505070754 12 168 0.0 3.2 0.00 0.08 0.00 88 1015.5
20260505070254 12 168 0.0 3.2 0.00 0.08 0.00 88 1015.5
20260505065757 12 168 0.0 3.2 0.00 0.08 0.10 88 1015.5
20260505065254 12 142 0.0 3.2 0.00 0.08 0.10 87 1015.5
20260505064755 12 142 0.0 3.2 0.00 0.08 0.10 87 1015.6
20260505064257 12 142 0.0 3.2 0.00 0.08 0.10 87 1015.6
20260505063755 12 105 0.0 3.2 0.00 0.08 0.10 87 1015.6
20260505063255 12 58 0.0 3.2 0.00 0.08 0.10 87 1015.6
20260505062757 12 57 0.0 3.2 0.00 0.08 0.10 87 1015.5
20260505062255 12 57 0.0 3.2 0.00 0.08 0.10 86 1015.6
20260505061755 12 34 0.0 0.0 0.00 0.08 0.10 86 1015.6
20260505061255 12 34 0.0 3.2 0.00 0.08 0.10 86 1015.6
20260505060756 12 34 0.0 3.2 0.00 0.08 0.10 86 1015.5
20260505060255 12 34 0.0 3.2 0.00 0.08 0.10 86 1015.6